Lamoni, IA

10:06 AM CDT on October 18, 2017 (GMT -0500)
Lamoni Municipal

Weather History for KLWD - March, 2013

Change the Weather History Date:

Thursday, March 7, 2013

  Actual Average Record
Temperature  
Mean Temperature 27 °F 36 °F  
Max Temperature 38 °F 46 °F 73 °F (2016)
Min Temperature 16 °F 26 °F 3 °F (1982)
Degree Days  
Heating Degree Days 38 29  
Month to date heating degree days 260 212  
Since 1 July heating degree days 4658 4929  
Cooling Degree Days 0 0  
Month to date cooling degree days 0 0  
Year to date cooling degree days 0 0  
Moisture  
Dew Point 19 °F    
Average Humidity 73    
Maximum Humidity 92    
Minimum Humidity 54    
Precipitation  
Precipitation 0.00 in 0.06 in 0.68 in (1990)
Month to date precipitation 0.05 0.42  
Sea Level Pressure  
Sea Level Pressure 30.32 in    
Wind  
Wind Speed 7 mph (ESE)    
Max Wind Speed 14 mph    
Max Gust Speed 17 mph    
Visibility 9 miles    
Events      
T = Trace of Precipitation, MM = Missing Value Source: NWS Daily Summary

Daily Weather History Graph

Daily Weather History Graph

Search for Another Location

Airport or City:

Trip Planner

Search our weather history database for the weather conditions in past years. The results will help you decide how hot, cold, wet, or windy it might be!

Date:

Astronomy

Mar. 07, 2013 Rise Set
Actual Time 6:39 AM CST 6:13 PM CST
Civil Twilight 6:12 AM CST 6:41 PM CST
Nautical Twilight 5:40 AM CST 7:12 PM CST
Astronomical Twilight 5:09 AM CST 7:44 PM CST
Moon 3:41 AM CST (3/7) 2:01 PM CST (3/7)
Length of Visible Light 12h 28m
Length of Day
11h 34m
Waning Crescent, 20% of the Moon is Illuminated
Mar 7
Waning Crescent
Mar 11
New
Mar 19
First Quarter
Mar 27
Full
Apr 2
Last Quarter

Hourly Weather History & Observations

Time (CST) Temp. Windchill Dew Point Humidity Pressure Visibility Wind Dir Wind Speed Gust Speed Precip Events Conditions
12:53 AM 19.9 °F 12.1 °F 16.0 °F 85% 30.37 in 10.0 mi East 5.8 mph - N/A   Clear
1:53 AM 18.0 °F 12.7 °F 15.1 °F 88% 30.37 in 9.0 mi East 3.5 mph - N/A   Clear
2:53 AM 18.0 °F 11.1 °F 15.1 °F 88% 30.35 in 8.0 mi East 4.6 mph - N/A   Clear
3:53 AM 17.1 °F 11.7 °F 14.0 °F 88% 30.33 in 7.0 mi ESE 3.5 mph - N/A   Clear
4:53 AM 17.1 °F 11.7 °F 14.0 °F 88% 30.35 in 7.0 mi East 3.5 mph - N/A   Clear
5:53 AM 16.0 °F 8.8 °F 12.9 °F 88% 30.36 in 7.0 mi ESE 4.6 mph - N/A   Clear
6:53 AM 16.0 °F 7.4 °F 14.0 °F 92% 30.36 in 6.0 mi ESE 5.8 mph - N/A   Clear
7:53 AM 18.0 °F 11.1 °F 16.0 °F 92% 30.38 in 7.0 mi East 4.6 mph - N/A   Clear
8:53 AM 19.9 °F 12.1 °F 17.1 °F 89% 30.38 in 9.0 mi ESE 5.8 mph - N/A   Clear
9:53 AM 25.0 °F 19.3 °F 18.0 °F 75% 30.38 in 10.0 mi ESE 4.6 mph - N/A   Clear
10:53 AM 28.0 °F 20.0 °F 19.0 °F 69% 30.36 in 10.0 mi SE 8.1 mph - N/A   Clear
11:53 AM 30.0 °F 21.7 °F 19.9 °F 66% 30.34 in 10.0 mi SE 9.2 mph - N/A   Clear
12:53 PM 33.1 °F 24.9 °F 21.9 °F 64% 30.31 in 10.0 mi SSE 10.4 mph - N/A   Clear
1:53 PM 35.1 °F 26.4 °F 21.9 °F 59% 30.28 in 10.0 mi SSE 12.7 mph - N/A   Clear
2:53 PM 37.0 °F 30.4 °F 23.0 °F 57% 30.26 in 10.0 mi ESE 9.2 mph - N/A   Clear
3:53 PM 37.0 °F 30.4 °F 23.0 °F 57% 30.25 in 10.0 mi ESE 9.2 mph - N/A   Clear
4:53 PM 37.9 °F 31.5 °F 23.0 °F 55% 30.25 in 10.0 mi East 9.2 mph - N/A   Clear
5:53 PM 35.1 °F 27.9 °F 24.1 °F 64% 30.26 in 10.0 mi East 9.2 mph - N/A   Clear
6:53 PM 33.1 °F 26.9 °F 23.0 °F 66% 30.27 in 10.0 mi East 6.9 mph - N/A   Clear
7:53 PM 32.0 °F 25.6 °F 21.9 °F 66% 30.28 in 10.0 mi ESE 6.9 mph - N/A   Clear
8:53 PM 30.0 °F 22.4 °F 21.9 °F 72% 30.29 in 10.0 mi ESE 8.1 mph - N/A   Clear
9:53 PM 28.9 °F 20.4 °F 21.9 °F 75% 30.29 in 10.0 mi East 9.2 mph - N/A   Clear
10:53 PM 28.9 °F 22.8 °F 21.0 °F 72% 30.29 in 10.0 mi ESE 5.8 mph - N/A   Clear
11:53 PM 28.0 °F 21.7 °F 21.0 °F 75% 30.30 in 10.0 mi ESE 5.8 mph - N/A   Clear